| time (UTC) | temp C | wind direction | speed KPH | gust KPH | rain 1hr cm | rain 24hr cm | rain mn cm | humidity % | barometer mb |
| 20260504151015 | 16 | 160 | 6.4 | 16.1 | 0.00 | 0.00 | 0.00 | 47 | 998.2 |
| 20260504150539 | 16 | 236 | 3.2 | 14.5 | 0.00 | 0.00 | 0.00 | 47 | 998.1 |
| 20260504141040 | 16 | 144 | 1.6 | 14.5 | 0.00 | 0.00 | 0.00 | 45 | 997.8 |
| 20260504140532 | 16 | 11 | 3.2 | 19.3 | 0.00 | 0.00 | 0.00 | 44 | 997.7 |
| 20260504140103 | 16 | 47 | 4.8 | 19.3 | 0.00 | 0.00 | 0.00 | 42 | 997.5 |
| 20260504130558 | 15 | 346 | 6.4 | 22.5 | 0.00 | 0.00 | 0.00 | 53 | 996.8 |
| 20260504110534 | 14 | 326 | 9.7 | 22.5 | 0.00 | 0.00 | 0.00 | 48 | 995.6 |
| 20260504100503 | 13 | 293 | 4.8 | 19.3 | 0.00 | 0.00 | 0.00 | 49 | 996.2 |
| 20260504081506 | 13 | 302 | 4.8 | 20.9 | 0.00 | 0.00 | 0.00 | 49 | 997.9 |
| 20260504081044 | 13 | 298 | 4.8 | 20.9 | 0.00 | 0.00 | 0.00 | 49 | 998.1 |
| 20260504080518 | 13 | 279 | 3.2 | 14.5 | 0.00 | 0.00 | 0.00 | 49 | 998.2 |
| 20260504070202 | 13 | 259 | 4.8 | 12.9 | 0.00 | 0.00 | 0.00 | 49 | 999.2 |
| 20260504050546 | 10 | 360 | 0.0 | 3.2 | 0.00 | 0.00 | 0.00 | 68 | 1001.4 |
| 20260504050024 | 10 | 360 | 0.0 | 3.2 | 0.00 | 0.00 | 0.00 | 69 | 1001.5 |
| 20260504045603 | 9 | 360 | 0.0 | 0.0 | 0.00 | 0.00 | 0.00 | 70 | 1001.5 |
| 20260504045022 | 9 | 360 | 0.0 | 0.0 | 0.00 | 0.00 | 0.00 | 70 | 1001.6 |
| 20260504044504 | 9 | 360 | 0.0 | 0.0 | 0.00 | 0.00 | 0.00 | 72 | 1001.7 |
| 20260504044028 | 9 | 360 | 0.0 | 1.6 | 0.00 | 0.00 | 0.00 | 74 | 1001.8 |
| 20260504043508 | 9 | 360 | 0.0 | 1.6 | 0.00 | 0.00 | 0.00 | 74 | 1001.9 |
| 20260504043039 | 8 | 360 | 0.0 | 0.0 | 0.00 | 0.00 | 0.00 | 75 | 1002.0 |
| 20260504042532 | 9 | 360 | 0.0 | 0.0 | 0.00 | 0.00 | 0.00 | 76 | 1002.1 |
| 20260504042018 | 9 | 360 | 0.0 | 0.0 | 0.00 | 0.00 | 0.00 | 75 | 1002.1 |
| 20260504041505 | 9 | 360 | 0.0 | 0.0 | 0.00 | 0.00 | 0.00 | 75 | 1002.2 |
| 20260504041004 | 9 | 360 | 0.0 | 0.0 | 0.00 | 0.00 | 0.00 | 75 | 1002.3 |
| 20260504040602 | 9 | 360 | 0.0 | 0.0 | 0.00 | 0.00 | 0.00 | 74 | 1002.3 |
| 20260504040037 | 9 | 360 | 0.0 | 0.0 | 0.00 | 0.00 | 0.00 | 75 | 1002.4 |
| 20260504035512 | 9 | 360 | 0.0 | 0.0 | 0.00 | 0.00 | 0.00 | 74 | 1002.6 |
| 20260504035058 | 9 | 360 | 0.0 | 0.0 | 0.00 | 0.00 | 0.00 | 73 | 1002.7 |
| 20260504034554 | 10 | 360 | 0.0 | 0.0 | 0.00 | 0.00 | 0.00 | 73 | 1002.8 |
| 20260504034037 | 10 | 360 | 0.0 | 0.0 | 0.00 | 0.00 | 0.00 | 71 | 1002.9 |
| 20260504033502 | 10 | 360 | 0.0 | 0.0 | 0.00 | 0.00 | 0.00 | 70 | 1002.9 |
| 20260504033028 | 10 | 360 | 0.0 | 0.0 | 0.00 | 0.00 | 0.00 | 69 | 1003.0 |
| 20260504032517 | 10 | 360 | 0.0 | 0.0 | 0.00 | 0.00 | 0.00 | 71 | 1003.1 |
| 20260504032008 | 10 | 360 | 0.0 | 0.0 | 0.00 | 0.00 | 0.00 | 75 | 1003.1 |
| 20260504031559 | 10 | 360 | 0.0 | 0.0 | 0.00 | 0.00 | 0.00 | 67 | 1003.1 |
| 20260504031023 | 11 | 360 | 0.0 | 0.0 | 0.00 | 0.00 | 0.00 | 71 | 1003.2 |
| 20260504030509 | 11 | 360 | 0.0 | 0.0 | 0.00 | 0.00 | 0.00 | 74 | 1003.2 |
| 20260504030029 | 11 | 360 | 0.0 | 0.0 | 0.00 | 0.00 | 0.00 | 73 | 1003.3 |
| 20260504025549 | 11 | 360 | 0.0 | 0.0 | 0.00 | 0.00 | 0.00 | 67 | 1003.3 |
| 20260504025109 | 11 | 360 | 0.0 | 0.0 | 0.00 | 0.00 | 0.00 | 66 | 1003.4 |
| 20260504024532 | 12 | 360 | 0.0 | 0.0 | 0.00 | 0.00 | 0.00 | 64 | 1003.4 |
| 20260504024104 | 12 | 360 | 0.0 | 0.0 | 0.00 | 0.00 | 0.00 | 61 | 1003.4 |
| 20260504023537 | 12 | 360 | 0.0 | 0.0 | 0.00 | 0.00 | 0.00 | 56 | 1003.4 |
| 20260504023011 | 13 | 360 | 0.0 | 0.0 | 0.00 | 0.00 | 0.00 | 58 | 1003.4 |
| 20260504022535 | 13 | 315 | 0.0 | 0.0 | 0.00 | 0.00 | 0.00 | 65 | 1003.5 |
| 20260504022002 | 14 | 315 | 0.0 | 0.0 | 0.00 | 0.00 | 0.00 | 68 | 1003.5 |
| 20260504021525 | 14 | 315 | 0.0 | 0.0 | 0.00 | 0.00 | 0.00 | 69 | 1003.4 |
| 20260504021106 | 15 | 315 | 0.0 | 0.0 | 0.00 | 0.00 | 0.00 | 62 | 1003.5 |
| 20260504020540 | 15 | 315 | 0.0 | 0.0 | 0.00 | 0.00 | 0.00 | 58 | 1003.5 |
| 20260504020007 | 16 | 315 | 0.0 | 0.0 | 0.00 | 0.00 | 0.00 | 57 | 1003.4 |
| 20260504015535 | 16 | 315 | 0.0 | 0.0 | 0.00 | 0.00 | 0.00 | 53 | 1003.4 |
| 20260504015008 | 16 | 315 | 0.0 | 1.6 | 0.00 | 0.00 | 0.00 | 45 | 1003.5 |
| 20260504014549 | 16 | 315 | 0.0 | 3.2 | 0.00 | 0.00 | 0.00 | 41 | 1003.5 |
| 20260504014026 | 17 | 315 | 0.0 | 3.2 | 0.00 | 0.00 | 0.00 | 36 | 1003.7 |
| 20260504013557 | 17 | 315 | 0.0 | 0.0 | 0.00 | 0.00 | 0.00 | 39 | 1003.6 |
| 20260504013041 | 17 | 315 | 0.0 | 3.2 | 0.00 | 0.00 | 0.00 | 34 | 1003.7 |
| 20260504012604 | 18 | 315 | 0.0 | 3.2 | 0.00 | 0.00 | 0.00 | 33 | 1003.7 |
| 20260504012015 | 18 | 315 | 0.0 | 0.0 | 0.00 | 0.00 | 0.00 | 33 | 1003.8 |
| 20260504011556 | 18 | 315 | 0.0 | 6.4 | 0.00 | 0.00 | 0.00 | 32 | 1003.8 |
| 20260504011027 | 18 | 315 | 1.6 | 6.4 | 0.00 | 0.00 | 0.00 | 32 | 1003.8 |
| 20260504010519 | 18 | 336 | 0.0 | 4.8 | 0.00 | 0.00 | 0.00 | 32 | 1003.7 |
| 20260504010106 | 18 | 311 | 0.0 | 4.8 | 0.00 | 0.00 | 0.00 | 32 | 1003.7 |
| 20260504005517 | 18 | 310 | 0.0 | 6.4 | 0.00 | 0.00 | 0.00 | 32 | 1003.8 |
| 20260504005059 | 18 | 300 | 1.6 | 6.4 | 0.00 | 0.00 | 0.00 | 32 | 1003.9 |
| 20260504004522 | 19 | 341 | 1.6 | 8.0 | 0.00 | 0.00 | 0.00 | 31 | 1003.9 |
| 20260504004002 | 19 | 317 | 3.2 | 14.5 | 0.00 | 0.00 | 0.00 | 31 | 1003.9 |
| 20260504003522 | 19 | 327 | 6.4 | 14.5 | 0.00 | 0.00 | 0.00 | 30 | 1003.8 |
| 20260504003045 | 19 | 331 | 3.2 | 12.9 | 0.00 | 0.00 | 0.00 | 32 | 1003.9 |
| 20260504002531 | 19 | 331 | 1.6 | 9.7 | 0.00 | 0.00 | 0.00 | 33 | 1003.9 |
| 20260504002058 | 19 | 11 | 3.2 | 9.7 | 0.00 | 0.00 | 0.00 | 32 | 1003.9 |
| 20260504001513 | 19 | 328 | 4.8 | 12.9 | 0.00 | 0.00 | 0.00 | 31 | 1003.9 |
| 20260504001051 | 19 | 344 | 4.8 | 12.9 | 0.00 | 0.00 | 0.00 | 32 | 1004.0 |
| 20260504000520 | 19 | 335 | 1.6 | 6.4 | 0.00 | 0.00 | 0.00 | 32 | 1004.1 |
| 20260504000101 | 20 | 308 | 1.6 | 6.4 | 0.00 | 0.00 | 0.00 | 32 | 1004.0 |
| 20260503235600 | 20 | 326 | 1.6 | 8.0 | 0.00 | 0.00 | 0.00 | 31 | 1004.0 |
| 20260503235037 | 20 | 327 | 3.2 | 8.0 | 0.00 | 0.00 | 0.00 | 30 | 1003.9 |
| 20260503234509 | 20 | 266 | 1.6 | 8.0 | 0.00 | 0.00 | 0.00 | 31 | 1003.9 |
| 20260503234029 | 20 | 316 | 3.2 | 12.9 | 0.00 | 0.00 | 0.00 | 30 | 1003.9 |
| 20260503233549 | 20 | 323 | 1.6 | 12.9 | 0.00 | 0.00 | 0.00 | 30 | 1004.0 |
| 20260503233108 | 21 | 321 | 0.0 | 9.7 | 0.00 | 0.00 | 0.00 | 30 | 1004.0 |
| 20260503232523 | 21 | 328 | 1.6 | 9.7 | 0.00 | 0.00 | 0.00 | 30 | 1004.2 |
| 20260503232039 | 21 | 14 | 4.8 | 9.7 | 0.00 | 0.00 | 0.00 | 30 | 1004.3 |
| 20260503231559 | 21 | 328 | 3.2 | 14.5 | 0.00 | 0.00 | 0.00 | 29 | 1004.4 |
| 20260503231009 | 21 | 64 | 1.6 | 14.5 | 0.00 | 0.00 | 0.00 | 30 | 1004.3 |
| 20260503230553 | 21 | 319 | 4.8 | 16.1 | 0.00 | 0.00 | 0.00 | 30 | 1004.4 |
| 20260503230014 | 21 | 316 | 8.0 | 16.1 | 0.00 | 0.00 | 0.00 | 29 | 1004.4 |
| 20260503225544 | 21 | 312 | 1.6 | 14.5 | 0.00 | 0.00 | 0.00 | 28 | 1004.4 |
| 20260503225018 | 21 | 282 | 4.8 | 14.5 | 0.00 | 0.00 | 0.00 | 28 | 1004.5 |
| 20260503224537 | 21 | 320 | 4.8 | 17.7 | 0.00 | 0.00 | 0.00 | 29 | 1004.5 |
| 20260503224057 | 21 | 344 | 6.4 | 17.7 | 0.00 | 0.00 | 0.00 | 28 | 1004.5 |
| 20260503223517 | 21 | 312 | 3.2 | 14.5 | 0.00 | 0.00 | 0.00 | 29 | 1004.6 |
| 20260503223005 | 21 | 305 | 4.8 | 14.5 | 0.00 | 0.00 | 0.00 | 29 | 1004.6 |
| 20260503222526 | 21 | 310 | 4.8 | 9.7 | 0.00 | 0.00 | 0.00 | 30 | 1004.6 |
| 20260503222047 | 21 | 327 | 4.8 | 12.9 | 0.00 | 0.00 | 0.00 | 28 | 1004.6 |
| 20260503221529 | 21 | 333 | 3.2 | 14.5 | 0.00 | 0.00 | 0.00 | 29 | 1004.5 |
| 20260503221103 | 21 | 325 | 4.8 | 14.5 | 0.00 | 0.00 | 0.00 | 30 | 1004.6 |
| 20260503220509 | 21 | 325 | 3.2 | 11.3 | 0.00 | 0.00 | 0.00 | 31 | 1004.6 |
| 20260503220029 | 21 | 112 | 1.6 | 12.9 | 0.00 | 0.00 | 0.00 | 32 | 1004.6 |
| 20260503215509 | 21 | 19 | 3.2 | 16.1 | 0.00 | 0.00 | 0.00 | 30 | 1004.6 |
| 20260503215046 | 22 | 300 | 4.8 | 16.1 | 0.00 | 0.00 | 0.00 | 30 | 1004.6 |
| 20260503214606 | 22 | 290 | 0.0 | 9.7 | 0.00 | 0.00 | 0.00 | 33 | 1004.6 |
| 20260503214017 | 22 | 336 | 3.2 | 6.4 | 0.00 | 0.00 | 0.00 | 31 | 1004.7 |
| 20260503213537 | 21 | 318 | 1.6 | 8.0 | 0.00 | 0.00 | 0.00 | 31 | 1004.7 |
| 20260503213011 | 21 | 146 | 1.6 | 12.9 | 0.00 | 0.00 | 0.00 | 31 | 1004.8 |
| 20260503212534 | 21 | 326 | 1.6 | 12.9 | 0.00 | 0.00 | 0.00 | 31 | 1004.8 |
| 20260503212050 | 21 | 312 | 4.8 | 17.7 | 0.00 | 0.00 | 0.00 | 31 | 1004.8 |
| 20260503211525 | 21 | 244 | 3.2 | 17.7 | 0.00 | 0.00 | 0.00 | 34 | 1004.9 |
| 20260503211059 | 22 | 311 | 4.8 | 12.9 | 0.00 | 0.00 | 0.00 | 31 | 1004.9 |
| 20260503210542 | 21 | 348 | 1.6 | 8.0 | 0.00 | 0.00 | 0.00 | 33 | 1004.8 |
| 20260503210013 | 21 | 243 | 1.6 | 14.5 | 0.00 | 0.00 | 0.00 | 35 | 1005.0 |
| 20260503205509 | 21 | 323 | 4.8 | 14.5 | 0.00 | 0.00 | 0.00 | 32 | 1005.0 |
| 20260503205029 | 21 | 319 | 3.2 | 14.5 | 0.00 | 0.00 | 0.00 | 32 | 1005.1 |
| 20260503204548 | 21 | 294 | 3.2 | 14.5 | 0.00 | 0.00 | 0.00 | 33 | 1005.2 |
| 20260503204026 | 21 | 21 | 4.8 | 12.9 | 0.00 | 0.00 | 0.00 | 33 | 1005.3 |
| 20260503203604 | 21 | 59 | 4.8 | 14.5 | 0.00 | 0.00 | 0.00 | 34 | 1005.2 |
| 20260503203018 | 21 | 355 | 4.8 | 14.5 | 0.00 | 0.00 | 0.00 | 31 | 1005.4 |
| 20260503202559 | 21 | 350 | 4.8 | 14.5 | 0.00 | 0.00 | 0.00 | 32 | 1005.4 |
| 20260503202009 | 21 | 253 | 1.6 | 17.7 | 0.00 | 0.00 | 0.00 | 35 | 1005.4 |
| 20260503201529 | 21 | 355 | 4.8 | 17.7 | 0.00 | 0.00 | 0.00 | 33 | 1005.4 |
| 20260503201003 | 21 | 343 | 6.4 | 14.5 | 0.00 | 0.00 | 0.00 | 34 | 1005.5 |
| 20260503200522 | 21 | 332 | 1.6 | 14.5 | 0.00 | 0.00 | 0.00 | 34 | 1005.6 |
| 20260503200043 | 21 | 335 | 3.2 | 14.5 | 0.00 | 0.00 | 0.00 | 32 | 1005.6 |
| 20260503195518 | 21 | 294 | 4.8 | 9.7 | 0.00 | 0.00 | 0.00 | 34 | 1005.8 |
| 20260503195051 | 21 | 249 | 1.6 | 9.7 | 0.00 | 0.00 | 0.00 | 33 | 1005.8 |
| 20260503194512 | 21 | 30 | 3.2 | 12.9 | 0.00 | 0.00 | 0.00 | 33 | 1005.9 |
| 20260503194031 | 21 | 315 | 3.2 | 12.9 | 0.00 | 0.00 | 0.00 | 34 | 1005.8 |
| 20260503193509 | 21 | 312 | 1.6 | 6.4 | 0.00 | 0.00 | 0.00 | 33 | 1005.9 |
| 20260503193107 | 21 | 85 | 0.0 | 9.7 | 0.00 | 0.00 | 0.00 | 34 | 1005.9 |
| 20260503192526 | 21 | 198 | 3.2 | 9.7 | 0.00 | 0.00 | 0.00 | 34 | 1005.8 |
| 20260503192051 | 21 | 315 | 3.2 | 9.7 | 0.00 | 0.00 | 0.00 | 36 | 1005.9 |
| 20260503191505 | 21 | 78 | 3.2 | 14.5 | 0.00 | 0.00 | 0.00 | 37 | 1005.8 |
| 20260503191058 | 20 | 94 | 4.8 | 14.5 | 0.00 | 0.00 | 0.00 | 36 | 1005.8 |
| 20260503190529 | 21 | 331 | 4.8 | 12.9 | 0.00 | 0.00 | 0.00 | 35 | 1005.9 |
| 20260503190050 | 21 | 294 | 3.2 | 12.9 | 0.00 | 0.00 | 0.00 | 37 | 1005.9 |
| 20260503185517 | 21 | 315 | 3.2 | 12.9 | 0.00 | 0.00 | 0.00 | 37 | 1005.9 |
| 20260503185052 | 21 | 122 | 4.8 | 12.9 | 0.00 | 0.00 | 0.00 | 37 | 1005.9 |
| 20260503184522 | 21 | 59 | 4.8 | 11.3 | 0.00 | 0.00 | 0.00 | 37 | 1006.0 |
| 20260503184048 | 21 | 74 | 3.2 | 9.7 | 0.00 | 0.00 | 0.00 | 36 | 1006.1 |
| 20260503183522 | 21 | 103 | 3.2 | 9.7 | 0.00 | 0.00 | 0.00 | 34 | 1006.2 |
| 20260503183107 | 21 | 269 | 1.6 | 11.3 | 0.00 | 0.00 | 0.00 | 39 | 1006.2 |
| 20260503182522 | 20 | 78 | 1.6 | 30.6 | 0.00 | 0.00 | 0.00 | 38 | 1006.1 |
| 20260503182006 | 20 | 323 | 11.3 | 30.6 | 0.00 | 0.00 | 0.00 | 38 | 1006.1 |
| 20260503181555 | 20 | 319 | 6.4 | 17.7 | 0.00 | 0.00 | 0.00 | 38 | 1006.2 |
| 20260503181031 | 20 | 344 | 3.2 | 9.7 | 0.00 | 0.00 | 0.00 | 38 | 1006.3 |
| 20260503180559 | 20 | 346 | 1.6 | 12.9 | 0.00 | 0.00 | 0.00 | 39 | 1006.4 |
| 20260503180054 | 20 | 260 | 4.8 | 12.9 | 0.00 | 0.00 | 0.00 | 40 | 1006.3 |
| 20260503175533 | 20 | 326 | 1.6 | 19.3 | 0.00 | 0.00 | 0.00 | 42 | 1006.3 |
| 20260503175006 | 20 | 290 | 4.8 | 14.5 | 0.00 | 0.00 | 0.00 | 39 | 1006.4 |
| 20260503174603 | 20 | 306 | 1.6 | 9.7 | 0.00 | 0.00 | 0.00 | 42 | 1006.4 |
| 20260503174021 | 20 | 167 | 1.6 | 9.7 | 0.00 | 0.00 | 0.00 | 42 | 1006.5 |
| 20260503173546 | 20 | 175 | 3.2 | 14.5 | 0.00 | 0.00 | 0.00 | 42 | 1006.4 |
| 20260503173005 | 20 | 274 | 6.4 | 14.5 | 0.00 | 0.00 | 0.00 | 43 | 1006.4 |
| 20260503172550 | 20 | 355 | 3.2 | 17.7 | 0.00 | 0.00 | 0.00 | 46 | 1006.5 |
| 20260503172029 | 20 | 308 | 4.8 | 14.5 | 0.00 | 0.00 | 0.00 | 46 | 1006.4 |
| 20260503171611 | 20 | 338 | 6.4 | 14.5 | 0.00 | 0.00 | 0.00 | 44 | 1006.5 |
| 20260503171016 | 20 | 80 | 1.6 | 19.3 | 0.00 | 0.00 | 0.00 | 44 | 1006.5 |
| 20260503170509 | 20 | 294 | 4.8 | 19.3 | 0.00 | 0.00 | 0.00 | 46 | 1006.5 |